JILIN-01 GAOFEN 3D 27 (52444 NORAD) Tracking and Keplerian Element Data

This shows tracking and keplerian element data for the satellite.

Feedback or suggestion? Click here.




ElementValue
Catalog52444
NameJILIN-01 GAOFEN 3D 27
Epoch Orbit239
Epoch Day140.88609418
Epoch Year2022
RAAN205.5004
Inclination97.6807
Eccentricity0.0013692
Argument of Perigee210.723
Mean Anonmoly268.0931
Mean Motion15.09500028
Decay Rate6.521E-05
L11 52444U 22048B 22140.88609418 .00006521 00000+0 41003-3 0 9992
L22 52444 97.6807 205.5004 0013692 210.7230 268.0931 15.09500028 2393

Live tracking and technical data element details for JILIN-01 GAOFEN 3D 27 (NORAD 52444). JILIN-01 GAOFEN 3D 27 can be tracked NOW for your location showing map with azimuth and elevation plus other details from your city location.

Track the satellite on the map from your city or location and see movement details for azimuth, elevation, latitude, longitude, range, height, and movement on the map or in text.







IsCatalogInMostPopularTable: catalog: 52444, numindb: 6
Update: records affected: 1



GetName: 52444 JILIN-01 GAOFEN 3D 27

Hit Count: updated at: Mon, 23 May 2022 16:56:09 GMT